Location: Wildcat Hills Observatory
(41.6350°N, 103.6812°W)
Time: 14:31:06
(UTC-07:00)

Nadezhda 1 Rocket - Pass Details

Date: 23 June 2018
Orbit: 941 x 1006 km, 83.0° (Epoch: 18 November)

Event Time Altitude Azimuth Distance (km) Brightness Sun altitude
Exits shadow 23:46:06 44° 143° (SE) 1,360 4.3 -22.9°
Maximum altitude 23:47:50 58° 92° (E) 1,163 4.2 -23.0°
Drops below altitude 10° 23:54:06 10° 15° (NNE) 2,785 7.2 -23.3°
Sets 23:56:40 0° 12° (NNE) 3,735 8.1 -23.5°
